Sydney Airport

Airport
ICAO code: 
YSSY
IATA Code: 
SYD
Summary
ICAO Region: 
APAC
Territory: 
Location: 
Mascot, New South Wales
Serving: 
Sydney
Elevation: 
21 ft
Coordinates: 
Aerial View: 
33° 56' 23.368" S, 151° 10' 31.934" E
Airport BS: 
Bird Strike
Metar
Observation
YSSY 190030Z 16017KT 9999 RA FEW020 SCT030 BKN110 21/18 Q1020
Station
Sydney Airport
Date/Time
2022-01-19 00:30:00
Wind direction
160°
Wind speed
17 kts
Lowest cloud amount
few clouds
Temperature
21°C
Dew point
18°C
Humidity
83%
QNH
1020 hPa
Weather condition
rain

International airport serving Sydney, Australia.

Climatology

Temperate Marine climate/Oceanic climate (Köppen climate classification Cfb). Moderately cool summer and comparatively warm winter

Runways

Designator Length Width Surface Rops
16L/34R 2438 45 ASP Yes/Yes
7/25 2530 45 ASP Yes/Yes
16R/34L 3962 45 ASP Yes/Yes

SKYbrary Partners:

Safety knowledge contributed by: